FW1908 Weather Reports


Display with metric or nautical units.
time (UTC)temp
F
wind
direction
speed
MPH
gust
MPH
rain 1hr
in
rain 24hr
in
rain mn
in
humidity
%
barometer
mb
20260902230654 93 74 0.0 0.0 0.00 0.00 0.00 55 1017.1
20260902230154 93 74 0.0 0.0 0.00 0.00 0.00 54 1017.1
20260902225654 93 74 0.0 0.0 0.00 0.00 0.00 55 1017.0
20260902225153 93 74 0.0 0.0 0.00 0.00 0.00 54 1017.0
20260902224652 93 74 0.0 0.0 0.00 0.00 0.00 54 1017.0
20260902224151 93 74 0.0 0.0 0.00 0.00 0.00 53 1017.0
20260902223913 93 74 0.0 0.0 0.00 0.00 0.00 53 1017.1
20260902223147 93 44 0.0 0.0 0.00 0.00 0.00 52 1017.0
20260902222646 94 101 0.0 0.0 0.00 0.00 0.00 52 1017.0
20260902222146 94 101 0.0 0.0 0.00 0.00 0.00 54 1017.1
20260902221647 94 101 0.0 0.0 0.00 0.00 0.00 53 1017.1
20260902221147 94 101 0.0 0.0 0.00 0.00 0.00 52 1017.0
20260902220646 94 101 0.0 0.0 0.00 0.00 0.00 52 1017.1
20260902220144 95 101 0.0 0.0 0.00 0.00 0.00 52 1017.1
20260902215643 95 101 0.0 0.0 0.00 0.00 0.00 50 1017.1
20260902215140 95 101 0.0 0.0 0.00 0.00 0.00 48 1017.2
20260902214904 95 101 0.0 1.0 0.00 0.00 0.00 47 1017.2
20260902214141 95 102 0.0 1.0 0.00 0.00 0.00 48 1017.1
20260902213639 95 106 0.0 0.0 0.00 0.00 0.00 51 1017.2
20260902213401 95 106 0.0 0.0 0.00 0.00 0.00 48 1017.2
20260902212638 95 106 0.0 0.0 0.00 0.00 0.00 47 1017.2
20260902212139 96 107 0.0 0.0 0.00 0.00 0.00 47 1017.2
20260902211639 96 335 0.0 1.0 0.00 0.00 0.00 47 1017.3
20260902211406 96 99 0.0 2.0 0.00 0.00 0.00 48 1017.2
20260902210635 96 101 0.0 2.0 0.00 0.00 0.00 47 1017.3
20260902210135 96 43 0.0 1.0 0.00 0.00 0.00 46 1017.3
20260902205135 96 40 0.0 2.0 0.00 0.00 0.00 47 1017.4
20260902204135 96 57 0.0 3.0 0.00 0.00 0.00 46 1017.4
20260902203635 97 61 0.0 3.0 0.00 0.00 0.00 47 1017.4
20260902203134 97 259 0.0 2.0 0.00 0.00 0.00 49 1017.4
20260902202634 97 259 0.0 3.0 0.00 0.00 0.00 50 1017.4
20260902202134 97 259 0.0 3.0 0.00 0.00 0.00 47 1017.5
20260902201134 97 333 0.0 1.0 0.00 0.00 0.00 52 1017.5
20260902200857 98 61 0.0 0.0 0.00 0.00 0.00 49 1017.6
20260902200358 98 61 0.0 0.0 0.00 0.00 0.00 46 1017.6
20260902195635 99 61 0.0 0.0 0.00 0.00 0.00 44 1017.6
20260902195134 99 61 0.0 0.0 0.00 0.00 0.00 44 1017.6
20260902194635 99 61 0.0 1.0 0.00 0.00 0.00 45 1017.7
20260902194134 100 61 0.0 2.0 0.00 0.00 0.00 43 1017.7
20260902193857 100 61 1.0 6.0 0.00 0.00 0.00 43 1017.8
20260902193135 100 128 1.0 6.0 0.00 0.00 0.00 42 1017.8
20260902192636 100 68 0.0 6.0 0.00 0.00 0.00 44 1017.9
20260902192136 100 73 0.0 2.0 0.00 0.00 0.00 46 1017.9
20260902191132 100 86 0.0 3.0 0.00 0.00 0.00 47 1018.0
20260902190634 100 71 1.0 7.0 0.00 0.00 0.00 43 1018.0
20260902190132 100 92 2.0 7.0 0.00 0.00 0.00 44 1018.0
20260902185633 99 30 1.0 7.0 0.00 0.00 0.00 47 1018.1
20260902185132 99 84 1.0 6.0 0.00 0.00 0.00 45 1018.2
20260902184632 99 20 0.0 3.0 0.00 0.00 0.00 45 1018.2
20260902184132 99 19 0.0 2.0 0.00 0.00 0.00 45 1018.3
20260902183630 99 59 1.0 4.0 0.00 0.00 0.00 46 1018.3
20260902183130 99 24 1.0 5.0 0.00 0.00 0.00 47 1018.5
20260902182629 99 235 1.0 5.0 0.00 0.00 0.00 47 1018.5
20260902182126 98 230 1.0 3.0 0.00 0.00 0.00 48 1018.6
20260902181625 98 344 1.0 3.0 0.00 0.00 0.00 44 1018.6
20260902181126 98 299 0.0 3.0 0.00 0.00 0.00 45 1018.5
20260902180844 98 63 0.0 3.0 0.00 0.00 0.00 46 1018.6
20260902180124 97 323 1.0 4.0 0.00 0.00 0.00 49 1018.6
20260902175624 97 316 1.0 7.0 0.00 0.00 0.00 49 1018.7
20260902175125 97 317 1.0 7.0 0.00 0.00 0.00 51 1018.8
20260902174625 96 254 0.0 3.0 0.00 0.00 0.00 50 1018.8
20260902174122 96 157 0.0 2.0 0.00 0.00 0.00 50 1018.8
20260902173622 97 157 0.0 2.0 0.00 0.00 0.00 50 1018.9
20260902173344 97 163 0.0 1.0 0.00 0.00 0.00 49 1018.9
20260902172620 97 164 0.0 2.0 0.00 0.00 0.00 48 1018.9
20260902172120 97 165 1.0 4.0 0.00 0.00 0.00 48 1018.9
20260902171614 97 186 1.0 4.0 0.00 0.00 0.00 49 1019.0
20260902171110 97 167 1.0 4.0 0.00 0.00 0.00 48 1019.1
20260902170602 97 351 0.0 4.0 0.00 0.00 0.00 50 1019.2
20260902170316 96 338 1.0 5.0 0.00 0.00 0.00 51 1019.2
20260902165550 96 332 1.0 6.0 0.00 0.00 0.00 49 1019.4
20260902165044 97 332 0.0 6.0 0.00 0.00 0.00 48 1019.5
20260902164537 97 99 0.0 4.0 0.00 0.00 0.00 48 1019.5
20260902164255 97 80 0.0 4.0 0.00 0.00 0.00 51 1019.5
20260902163526 96 98 1.0 8.0 0.00 0.00 0.00 51 1019.5
20260902163020 96 38 1.0 8.0 0.00 0.00 0.00 52 1019.5
20260902162513 96 109 1.0 4.0 0.00 0.00 0.00 53 1019.6
20260902162008 96 83 1.0 4.0 0.00 0.00 0.00 52 1019.7
20260902161501 95 323 0.0 3.0 0.00 0.00 0.00 51 1019.7
20260902160956 95 69 0.0 2.0 0.00 0.00 0.00 51 1019.7
20260902160449 95 293 0.0 2.0 0.00 0.00 0.00 54 1019.7
20260902155943 95 47 0.0 2.0 0.00 0.00 0.00 53 1019.8
20260902155438 95 305 0.0 2.0 0.00 0.00 0.00 56 1019.8
20260902154934 94 31 0.0 2.0 0.00 0.00 0.00 53 1019.8
20260902154425 94 238 0.0 1.0 0.00 0.00 0.00 54 1019.7
20260902153920 94 198 0.0 2.0 0.00 0.00 0.00 57 1019.8
20260902153414 93 198 0.0 4.0 0.00 0.00 0.00 56 1019.8
20260902153127 93 86 0.0 4.0 0.00 0.00 0.00 58 1019.8
20260902152626 92 80 1.0 4.0 0.00 0.00 0.00 56 1019.8
20260902151856 92 107 1.0 5.0 0.00 0.00 0.00 60 1019.8
20260902151350 91 57 0.0 5.0 0.00 0.00 0.00 58 1019.8
20260902150843 91 93 1.0 4.0 0.00 0.00 0.00 61 1019.7
20260902150338 91 105 0.0 4.0 0.00 0.00 0.00 62 1019.8
20260902150050 90 76 0.0 3.0 0.00 0.00 0.00 63 1019.8
20260902145326 90 76 0.0 3.0 0.00 0.00 0.00 65 1019.9
20260902144820 89 15 0.0 2.0 0.00 0.00 0.00 64 1019.8
20260902144314 89 0 0.0 2.0 0.00 0.00 0.00 65 1019.8
20260902143808 88 104 0.0 2.0 0.00 0.00 0.00 66 1019.8
20260902143522 88 30 0.0 1.0 0.00 0.00 0.00 68 1019.8
20260902143014 87 30 0.0 1.0 0.00 0.00 0.00 70 1019.7
20260902142250 87 31 0.0 1.0 0.00 0.00 0.00 74 1019.7
20260902141744 86 29 0.0 2.0 0.00 0.00 0.00 72 1019.7
20260902141238 85 345 0.0 2.0 0.00 0.00 0.00 74 1019.8
20260902140731 84 338 0.0 2.0 0.00 0.00 0.00 76 1019.8
20260902140226 84 78 0.0 2.0 0.00 0.00 0.00 77 1019.6
20260902135720 83 90 0.0 1.0 0.00 0.00 0.00 79 1019.6
20260902135213 82 92 0.0 2.0 0.00 0.00 0.00 80 1019.6
20260902134708 81 92 0.0 2.0 0.00 0.00 0.00 82 1019.7
20260902134201 81 96 0.0 2.0 0.00 0.00 0.00 83 1019.7
20260902133656 80 299 0.0 2.0 0.00 0.00 0.00 86 1019.6
20260902133150 79 49 0.0 0.0 0.00 0.00 0.00 89 1019.6
20260902132912 78 49 0.0 0.0 0.00 0.00 0.00 91 1019.7
20260902132138 78 49 0.0 0.0 0.00 0.00 0.00 92 1019.8
20260902131633 77 49 0.0 0.0 0.00 0.00 0.00 93 1019.8
20260902131125 77 49 0.0 0.0 0.00 0.00 0.00 94 1019.8
20260902130620 77 49 0.0 0.0 0.00 0.00 0.00 94 1019.9
20260902130113 77 50 0.0 0.0 0.00 0.00 0.00 94 1019.9
20260902125608 77 50 0.0 0.0 0.00 0.00 0.00 94 1019.9
20260902125322 76 50 0.0 0.0 0.00 0.00 0.00 94 1019.9
20260902124557 76 50 0.0 0.0 0.00 0.00 0.00 94 1019.9
20260902124050 76 50 0.0 0.0 0.00 0.00 0.00 94 1019.9
20260902123544 76 50 0.0 0.0 0.00 0.00 0.00 94 1019.9
20260902123038 75 50 0.0 0.0 0.00 0.00 0.00 94 1019.9
20260902122538 75 50 0.0 0.0 0.00 0.00 0.00 94 1019.9
20260902122036 75 50 0.0 0.0 0.00 0.00 0.00 94 1019.9
20260902121536 75 50 0.0 0.0 0.00 0.00 0.00 93 1019.8
20260902121036 74 50 0.0 0.0 0.00 0.00 0.00 93 1019.8
20260902120036 74 50 0.0 0.0 0.00 0.00 0.00 93 1019.9
20260902115534 74 50 0.0 0.0 0.00 0.00 0.00 93 1019.8
20260902115035 74 50 0.0 0.0 0.00 0.00 0.00 93 1019.8
20260902114534 74 50 0.0 0.0 0.00 0.00 0.00 93 1019.8
20260902114033 74 50 0.0 0.0 0.00 0.00 0.00 92 1019.8
20260902113533 74 50 0.0 0.0 0.00 0.00 0.00 92 1019.8
20260902113033 74 50 0.0 0.0 0.00 0.00 0.00 92 1019.8
20260902112535 74 49 0.0 0.0 0.00 0.00 0.00 92 1019.7
20260902112034 74 50 0.0 0.0 0.00 0.00 0.00 92 1019.6
20260902111753 74 50 0.0 0.0 0.00 0.00 0.00 92 1019.6
20260902111031 74 49 0.0 0.0 0.00 0.00 0.00 92 1019.5
20260902110533 74 50 0.0 0.0 0.00 0.00 0.00 92 1019.6
20260902110252 74 50 0.0 0.0 0.00 0.00 0.00 92 1019.5
20260902105529 74 50 0.0 0.0 0.00 0.00 0.00 92 1019.5
20260902105252 74 50 0.0 0.0 0.00 0.00 0.00 92 1019.5
20260902104530 74 50 0.0 0.0 0.00 0.00 0.00 92 1019.5
20260902104028 74 50 0.0 0.0 0.00 0.00 0.00 92 1019.5
20260902103528 74 50 0.0 0.0 0.00 0.00 0.00 92 1019.4
20260902103028 74 50 0.0 0.0 0.00 0.00 0.00 92 1019.5
20260902102526 74 50 0.0 0.0 0.00 0.00 0.00 92 1019.4
20260902102026 75 50 0.0 0.0 0.00 0.00 0.00 92 1019.2
20260902101751 75 50 0.0 0.0 0.00 0.00 0.00 92 1019.4
20260902101024 75 50 0.0 0.0 0.00 0.00 0.00 92 1019.2
20260902100525 75 50 0.0 0.0 0.00 0.00 0.00 92 1019.2
20260902100024 75 50 0.0 0.0 0.00 0.00 0.00 92 1019.4
20260902095522 75 50 0.0 0.0 0.00 0.00 0.00 92 1019.2
20260902095022 75 50 0.0 0.0 0.00 0.00 0.00 91 1019.1
20260902094522 75 50 0.0 0.0 0.00 0.00 0.00 91 1019.2
20260902094019 75 50 0.0 0.0 0.00 0.00 0.00 92 1019.1
20260902093520 75 50 0.0 0.0 0.00 0.00 0.00 92 1019.0
20260902093021 75 50 0.0 0.0 0.00 0.00 0.00 92 1018.9
20260902092520 75 50 0.0 0.0 0.00 0.00 0.00 92 1018.9
20260902092019 75 50 0.0 0.0 0.00 0.00 0.00 92 1018.9
20260902091520 75 50 0.0 0.0 0.00 0.00 0.00 92 1018.8
20260902091020 75 50 0.0 0.0 0.00 0.00 0.00 91 1018.8
20260902090520 75 50 0.0 0.0 0.00 0.00 0.00 91 1018.7
20260902090015 75 50 0.0 0.0 0.00 0.00 0.00 91 1018.6
20260902085515 75 50 0.0 0.0 0.00 0.00 0.00 91 1018.5
20260902085017 75 50 0.0 0.0 0.00 0.00 0.00 91 1018.6
20260902084515 75 50 0.0 0.0 0.00 0.00 0.00 91 1018.6
20260902084015 75 50 0.0 0.0 0.00 0.00 0.00 91 1018.5
20260902083515 75 50 0.0 0.0 0.00 0.00 0.00 91 1018.5
20260902083015 76 50 0.0 0.0 0.00 0.00 0.00 91 1018.5
20260902082515 76 50 0.0 0.0 0.00 0.00 0.00 91 1018.5
20260902082017 76 50 0.0 0.0 0.00 0.00 0.00 91 1018.5
20260902081730 76 50 0.0 0.0 0.00 0.00 0.00 91 1018.5
20260902081011 76 50 0.0 0.0 0.00 0.00 0.00 91 1018.5
20260902080512 76 50 0.0 0.0 0.00 0.00 0.00 90 1018.5
20260902080012 76 50 0.0 0.0 0.00 0.00 0.00 90 1018.5
20260902075512 76 50 0.0 0.0 0.00 0.00 0.00 90 1018.6
20260902075012 76 50 0.0 0.0 0.00 0.00 0.00 90 1018.6
20260902074512 76 50 0.0 0.0 0.00 0.00 0.00 90 1018.5
20260902074010 76 50 0.0 0.0 0.00 0.00 0.00 90 1018.5
20260902073510 76 50 0.0 0.0 0.00 0.00 0.00 90 1018.5
20260902073008 76 50 0.0 0.0 0.00 0.00 0.00 90 1018.5
20260902072509 76 50 0.0 0.0 0.00 0.00 0.00 90 1018.5
20260902072009 76 50 0.0 0.0 0.00 0.00 0.00 90 1018.5
20260902071509 76 50 0.0 0.0 0.00 0.00 0.00 90 1018.4
20260902071005 76 50 0.0 0.0 0.00 0.00 0.00 90 1018.5
20260902070504 76 50 0.0 0.0 0.00 0.00 0.00 89 1018.5
20260902070002 76 50 0.0 0.0 0.00 0.00 0.00 89 1018.4
20260902065502 76 50 0.0 0.0 0.00 0.00 0.00 89 1018.4
20260902065229 77 50 0.0 0.0 0.00 0.00 0.00 89 1018.5
20260902064459 77 50 0.0 0.0 0.00 0.00 0.00 89 1018.5
20260902063956 77 50 0.0 0.0 0.00 0.00 0.00 89 1018.5
20260902063455 77 50 0.0 0.0 0.00 0.00 0.00 89 1018.5
20260902062451 77 50 0.0 0.0 0.00 0.00 0.00 89 1018.5
20260902061949 77 50 0.0 0.0 0.00 0.00 0.00 89 1018.6
20260902061447 77 50 0.0 0.0 0.00 0.00 0.00 89 1018.6
20260902060945 77 50 0.0 0.0 0.00 0.00 0.00 89 1018.6
20260902060443 77 50 0.0 0.0 0.00 0.00 0.00 89 1018.6
20260902055943 77 50 0.0 0.0 0.00 0.00 0.00 89 1018.6
20260902054431 77 49 0.0 0.0 0.00 0.00 0.00 88 1018.5
20260902053925 77 50 0.0 0.0 0.00 0.00 0.00 88 1018.5
20260902053418 78 50 0.0 0.0 0.00 0.00 0.00 88 1018.6
20260902052916 78 50 0.0 0.0 0.00 0.00 0.00 87 1018.6
20260902052416 78 50 0.0 0.0 0.00 0.00 0.00 87 1018.6
20260902051913 78 50 0.0 0.0 0.00 0.00 0.00 87 1018.5
20260902051411 78 50 0.0 0.0 0.00 0.00 0.00 87 1018.5
20260902050909 78 50 0.0 0.0 0.00 0.00 0.00 87 1018.5
20260902050407 78 50 0.0 0.0 0.00 0.00 0.00 87 1018.5
20260902045905 78 50 0.0 0.0 0.00 0.00 0.00 87 1018.5
20260902045405 78 50 0.0 0.0 0.00 0.00 0.00 87 1018.5
20260902044905 78 50 0.0 0.0 0.00 0.00 0.00 86 1018.4
20260902044403 78 50 0.0 0.0 0.00 0.00 0.00 86 1018.4
20260902043901 78 50 0.0 0.0 0.00 0.00 0.00 86 1018.4
20260902042857 79 50 0.0 0.0 0.00 0.00 0.00 86 1018.4
20260902042356 79 50 0.0 0.0 0.00 0.00 0.00 86 1018.3
20260902041854 79 50 0.0 0.0 0.00 0.00 0.00 85 1018.3
20260902041351 79 50 0.0 0.0 0.00 0.00 0.00 85 1018.3
20260902041113 79 50 0.0 0.0 0.00 0.00 0.00 85 1018.3
20260902040347 79 50 0.0 0.0 0.00 0.00 0.00 85 1018.4
20260902040107 79 50 0.0 0.0 0.00 0.00 0.00 85 1018.4
20260902035348 79 50 0.0 0.0 0.00 0.00 0.00 85 1018.4
20260902034847 79 50 0.0 0.0 0.00 0.00 0.00 85 1018.3
20260902034341 80 50 0.0 0.0 0.00 0.00 0.00 84 1018.3
20260902033835 80 50 0.0 0.0 0.00 0.00 0.00 84 1018.3
20260902033329 80 50 0.0 0.0 0.00 0.00 0.00 84 1018.3
20260902033044 80 50 0.0 0.0 0.00 0.00 0.00 84 1018.3
20260902032317 80 50 0.0 0.0 0.00 0.00 0.00 84 1018.3
20260902031814 80 50 0.0 0.0 0.00 0.00 0.00 83 1018.3
20260902031305 80 50 0.0 1.0 0.00 0.00 0.00 83 1018.3
20260902030800 80 50 0.0 1.0 0.00 0.00 0.00 83 1018.3
20260902030510 80 49 0.0 0.0 0.00 0.00 0.00 83 1018.3
20260902025747 81 49 0.0 0.0 0.00 0.00 0.00 82 1018.3
20260902025507 81 49 0.0 0.0 0.00 0.00 0.00 82 1018.3
20260902024735 81 49 0.0 0.0 0.00 0.00 0.00 81 1018.2
20260902024229 81 49 0.0 0.0 0.00 0.00 0.00 81 1018.2
20260902023722 81 49 0.0 0.0 0.00 0.00 0.00 81 1018.1
20260902023440 81 49 0.0 0.0 0.00 0.00 0.00 81 1018.1
20260902022711 82 49 0.0 0.0 0.00 0.00 0.00 80 1018.1
20260902022205 82 49 0.0 1.0 0.00 0.00 0.00 80 1018.1
20260902021659 82 49 0.0 1.0 0.00 0.00 0.00 79 1018.2
20260902021153 82 49 0.0 1.0 0.00 0.00 0.00 79 1018.1
20260902020646 82 49 0.0 0.0 0.00 0.00 0.00 79 1018.0
20260902020141 83 49 0.0 0.0 0.00 0.00 0.00 78 1018.1
20260902015634 83 49 0.0 0.0 0.00 0.00 0.00 78 1018.1
20260902015129 83 49 0.0 0.0 0.00 0.00 0.00 78 1018.0
20260902014622 83 49 0.0 0.0 0.00 0.00 0.00 77 1018.0
20260902014116 83 49 0.0 0.0 0.00 0.00 0.00 76 1018.0
20260902013611 83 49 0.0 0.0 0.00 0.00 0.00 76 1018.0
20260902013104 84 49 0.0 0.0 0.00 0.00 0.00 75 1018.0
20260902012559 84 49 0.0 0.0 0.00 0.00 0.00 75 1017.9
20260902012052 84 49 0.0 0.0 0.00 0.00 0.00 74 1017.9
20260902011547 84 49 0.0 0.0 0.00 0.00 0.00 74 1017.8
20260902011040 84 49 0.0 0.0 0.00 0.00 0.00 72 1017.8
20260902010759 85 49 0.0 0.0 0.00 0.00 0.00 72 1017.8
20260902010028 85 49 0.0 0.0 0.00 0.00 0.00 72 1017.6
20260902005523 85 49 0.0 0.0 0.00 0.00 0.00 70 1017.7
20260902005017 85 49 0.0 0.0 0.00 0.00 0.00 70 1017.6
20260902004511 85 49 0.0 0.0 0.00 0.00 0.00 69 1017.6
20260902004004 86 49 0.0 0.0 0.00 0.00 0.00 69 1017.6
20260902003459 86 49 0.0 0.0 0.00 0.00 0.00 68 1017.6
20260902002953 86 49 0.0 0.0 0.00 0.00 0.00 67 1017.6
20260902002447 87 49 0.0 0.0 0.00 0.00 0.00 67 1017.6
20260902001940 87 49 0.0 0.0 0.00 0.00 0.00 67 1017.5
20260902001435 87 49 0.0 0.0 0.00 0.00 0.00 66 1017.5
20260902000928 88 49 0.0 0.0 0.00 0.00 0.00 66 1017.4
20260902000423 88 49 0.0 0.0 0.00 0.00 0.00 65 1017.5
20260901235917 88 49 0.0 0.0 0.00 0.00 0.00 64 1017.5
20260901235411 89 49 0.0 0.0 0.00 0.00 0.00 63 1017.5
20260901235127 89 49 0.0 0.0 0.00 0.00 0.00 62 1017.5
20260901234400 89 49 0.0 0.0 0.00 0.00 0.00 61 1017.5
20260901233853 90 49 0.0 0.0 0.00 0.00 0.00 60 1017.5
20260901233346 90 49 0.0 0.0 0.00 0.00 0.00 58 1017.5
20260901232841 91 49 0.0 0.0 0.00 0.00 0.00 59 1017.5
20260901232336 91 49 0.0 0.0 0.00 0.00 0.00 57 1017.5
20260901231829 91 49 0.0 0.0 0.00 0.00 0.00 57 1017.5
20260901231322 91 49 0.0 0.0 0.00 0.00 0.00 56 1017.5